Flag for China Weather past 2 weeks in Hangzhou, Zhejiang, China

Now
43 °F

Passing clouds.


Feels Like: 39 °F
Forecast: 33 / 45 °F
Wind: 6 mph from North

Location: Hangzhou Airport

Current Time: Jan 31, 2015 at 4:51:42 PM

Latest Report: Jan 31, 2015 at 4:00 PM


Visibility: 5 mi

Pressure: 30.54 "Hg

Humidity: 42%

Dew point: 21 °F

Location of HangzhouLocation

Historic Weather in Hangzhou — Graph

°F

Hangzhou temperature yesterday

Maximum temperature yesterday: 37 °F (at 11:00 AM)
Minimum temperature yesterday: 36 °F (at 12:00 AM)
Average temperature yesterday: 37 °F

Past Weeks' High & Low Weather Summary

 TemperatureHumidityPressure
High66 °F (Jan 24, 2:30 PM)87% (Jan 21, 2:00 AM)30.66 "Hg (Jan 21, 2:00 AM)
Low34 °F (Jan 18, 5:30 AM)15% (Jan 19, 2:00 PM)30.09 "Hg (Jan 24, 2:30 PM)
Average44 °F65%30.32 "Hg
* Reported Jan 16 3:00 PM — Jan 31 3:30 PM, Hangzhou, Weather by CustomWeather, © 2014

Note: Actual official high and low records may vary slightly from our data, if they occured in-between our weather recording intervals... More about our weather records

Advertising

Hangzhou weather history for previous 24 hours

 ConditionsComfort  
Time TempWeatherWind HumidityBarometerVisibility
3:30 PM
Jan 31
43 °FPassing clouds.6 mph42%30.54 "Hg5 mi
3:00 PM43 °FPassing clouds.6 mph42%30.54 "Hg5 mi
2:30 PM43 °FPassing clouds.6 mph46%30.54 "Hg5 mi
2:00 PM43 °FPassing clouds.6 mph42%30.54 "Hg5 mi
1:30 PM43 °FPassing clouds.6 mph46%30.57 "Hg4 mi
1:00 PM41 °FPassing clouds.6 mph49%30.57 "Hg4 mi
12:30 PM41 °FPassing clouds.6 mph49%30.57 "Hg4 mi
12:00 PM41 °FPassing clouds.3 mph53%30.60 "Hg4 mi
11:00 AM39 °FClear.1 mph52%30.63 "Hg4 mi
10:30 AM39 °FClear.6 mph52%30.63 "Hg4 mi
10:00 AM37 °FClear.6 mph56%30.66 "Hg4 mi
9:30 AM37 °FClear.6 mph52%30.66 "Hg5 mi
9:00 AM37 °FClear.6 mph52%30.63 "Hg5 mi
8:30 AM37 °FPassing clouds.3 mph52%30.63 "HgN/A
8:00 AM36 °FPassing clouds.3 mph56%30.63 "HgN/A
7:30 AM36 °FPassing clouds.6 mph52%30.60 "HgN/A
7:00 AM34 °FPassing clouds.3 mph51%30.60 "HgN/A
6:30 AM36 °FPassing clouds.3 mph52%30.60 "HgN/A
6:00 AM36 °FPassing clouds.3 mph56%30.57 "HgN/A
5:30 AM36 °FPassing clouds.3 mph56%30.57 "HgN/A
5:00 AM36 °FClear.6 mph60%30.57 "Hg4 mi
4:30 AM36 °FHaze.8 mph56%30.57 "Hg3 mi
4:00 AM36 °FHaze.8 mph65%30.57 "Hg3 mi
3:30 AM36 °FHaze.6 mph65%30.57 "Hg3 mi
3:00 AM37 °FHaze.3 mph65%30.57 "Hg3 mi
2:30 AM37 °FHaze.6 mph65%30.57 "Hg3 mi
2:00 AM37 °FHaze.6 mph65%30.57 "Hg3 mi
1:30 AM37 °FClear.6 mph65%30.57 "Hg4 mi
1:00 AM37 °FClear.6 mph65%30.57 "Hg4 mi
12:30 AM37 °FClear.6 mph65%30.57 "Hg4 mi
12:00 AM37 °FClear.6 mph65%30.57 "Hg10 mi
11:30 PM
Jan 30
37 °FPassing clouds.8 mph65%30.57 "HgN/A
11:00 PM37 °FClear.6 mph65%30.57 "Hg10 mi
10:30 PM37 °FPassing clouds.6 mph65%30.54 "HgN/A
10:00 PM37 °FPassing clouds.6 mph65%30.54 "HgN/A
9:30 PM37 °FPassing clouds.6 mph65%30.54 "HgN/A
9:00 PM37 °FPassing clouds.6 mph65%30.54 "HgN/A
8:30 PM37 °FClear.6 mph65%30.54 "Hg10 mi
8:00 PM37 °FClear.6 mph65%30.54 "Hg10 mi
7:30 PM37 °FClear.3 mph65%30.54 "Hg10 mi
7:00 PM37 °FClear.3 mph65%30.51 "Hg10 mi
6:30 PM37 °FPassing clouds.3 mph65%30.51 "HgN/A
6:00 PM37 °FClear.6 mph60%30.51 "Hg10 mi
5:30 PM37 °FPartly sunny.6 mph60%30.51 "HgN/A
5:00 PM37 °FPartly sunny.6 mph60%30.51 "HgN/A
4:30 PM37 °FPartly sunny.6 mph60%30.48 "HgN/A
4:00 PM37 °FPartly sunny.6 mph60%30.48 "HgN/A
Weather by CustomWeather, © 2014

See weather overviewHow to use our weather pages